Weather History for Golovin, AK

Change the Weather History Date:

Monday, April 1, 2013

  Actual Average Record
Temperature  
Mean Temperature 6 °F -  
Max Temperature 15 °F - - ()
Min Temperature -4 °F - - ()
Degree Days  
Heating Degree Days 60    
Moisture  
Dew Point -7 °F    
Average Humidity 54    
Maximum Humidity 100    
Minimum Humidity 25    
Precipitation  
Precipitation 0.00 in - - ()
Sea Level Pressure  
Sea Level Pressure 30.19 in    
Wind  
Wind Speed 3 mph (NW)    
Max Wind Speed 8 mph    
Max Gust Speed -    
Visibility 8 miles    
Events      
T = Trace of Precipitation, MM = Missing Value Source: NWS Daily Summary

Daily Weather History Graph

Daily Weather History Graph

Search for Another Location

Airport:

Trip Planner

Search our weather history database for the weather conditions in past years. The results will help you decide how hot, cold, wet, or windy it might be!

Date:

Astronomy

Apr. 01, 2013 Rise Set
Actual Time 8:07 AM AKDT 9:46 PM AKDT
Civil Twilight 7:16 AM AKDT 10:37 PM AKDT
Nautical Twilight 6:10 AM AKDT 11:44 PM AKDT
Astronomical Twilight 4:41 AM AKDT 1:16 AM AKDT
Moon 4:55 AM AKDT (4/1) 10:17 AM AKDT (4/1)
Length of Visible Light 15h 20m
Length of Day
13h 38m
Waning Gibbous, 65% of the Moon is Illuminated
Apr 1
Waning Gibbous
Apr 2
Last Quarter
Apr 10
New
Apr 18
First Quarter
Apr 25
Full

Hourly Weather History & Observations

Time (AKDT) Temp. Windchill Dew Point Humidity Pressure Visibility Wind Dir Wind Speed Gust Speed Precip Events Conditions
12:16 AM 8.6 °F 2.0 °F -11.2 °F 40% 30.24 in 10.0 mi North 3.5 mph - N/A   Mostly Cloudy
12:36 AM 6.8 °F - -16.6 °F 34% 30.24 in 10.0 mi Calm Calm - N/A   Partly Cloudy
12:56 AM 8.6 °F - -5.8 °F 52% 30.24 in 4.0 mi Calm Calm - N/A   Mostly Cloudy
1:16 AM 8.6 °F - - N/A% 30.24 in 6.0 mi Calm Calm - N/A   Partly Cloudy
1:36 AM 8.6 °F - - N/A% 30.24 in 10.0 mi Calm Calm - N/A   Clear
1:56 AM 6.8 °F - -0.4 °F 72% 30.24 in 5.0 mi Calm Calm - N/A   Clear
2:16 AM 5.0 °F - -18.4 °F 33% 30.23 in 10.0 mi Calm Calm - N/A   Clear
2:36 AM 8.6 °F - -7.6 °F 48% 30.23 in 10.0 mi Calm Calm - N/A   Clear
2:56 AM 6.8 °F -2.0 °F - N/A% 30.23 in 5.0 mi NW 4.6 mph - N/A   Scattered Clouds
3:16 AM 6.8 °F -2.0 °F -13.0 °F 40% 30.23 in 2.5 mi NW 4.6 mph - N/A   Mostly Cloudy
3:36 AM 3.2 °F -4.2 °F -20.2 °F 33% 30.23 in 1.0 mi NW 3.5 mph - N/A   Overcast
3:56 AM 3.2 °F -4.2 °F - N/A% 30.22 in 1.0 mi NW 3.5 mph - N/A   Overcast
4:16 AM 1.4 °F -6.2 °F -18.4 °F 39% 30.22 in 1.0 mi NW 3.5 mph - N/A   Overcast
4:36 AM -0.4 °F -10.4 °F -14.8 °F 51% 30.22 in 1.0 mi NW 4.6 mph - N/A   Overcast
4:56 AM -0.4 °F -8.3 °F - N/A% 30.22 in 2.0 mi WNW 3.5 mph - N/A   Mostly Cloudy
5:16 AM -0.4 °F -12.0 °F -29.2 °F 25% 30.22 in 1.8 mi WNW 5.8 mph - N/A   Overcast
5:36 AM -2.2 °F -12.5 °F - N/A% 30.22 in 2.0 mi NW 4.6 mph - N/A   Overcast
6:16 AM -0.4 °F -8.3 °F - N/A% 30.21 in 1.0 mi NW 3.5 mph - N/A   Overcast
6:36 AM -2.2 °F -10.4 °F -29.2 °F 27% 30.21 in 5.0 mi NW 3.5 mph - N/A   Mostly Cloudy
6:56 AM -4.0 °F -16.3 °F - N/A% 30.21 in 10.0 mi WNW 5.8 mph - N/A   Partly Cloudy
7:16 AM -4.0 °F -16.3 °F -29.2 °F 29% 30.20 in 10.0 mi WNW 5.8 mph - N/A   Clear
7:36 AM -2.2 °F -14.2 °F - N/A% 30.20 in 10.0 mi NW 5.8 mph - N/A   Clear
7:56 AM -2.2 °F -14.2 °F - N/A% 30.20 in 7.0 mi NW 5.8 mph - N/A   Clear
8:16 AM -4.0 °F -16.3 °F - N/A% 30.20 in 2.0 mi WNW 5.8 mph - N/A   Overcast
8:36 AM -4.0 °F -16.3 °F - N/A% 30.20 in 10.0 mi NW 5.8 mph - N/A   Mostly Cloudy
8:56 AM -2.2 °F -14.2 °F - N/A% 30.20 in 1.0 mi NW 5.8 mph - N/A   Overcast
9:16 AM -4.0 °F -16.3 °F - N/A% 30.20 in 0.8 mi NW 5.8 mph - N/A   Overcast
9:36 AM -2.2 °F -12.5 °F - N/A% 30.20 in 1.2 mi NNW 4.6 mph - N/A   Overcast
9:56 AM 1.4 °F -6.2 °F -27.4 °F 25% 30.20 in 10.0 mi NNW 3.5 mph - N/A   Scattered Clouds
10:16 AM 1.4 °F - - N/A% 30.20 in 10.0 mi Calm Calm - N/A   Clear
10:36 AM -0.4 °F - -23.8 °F 32% 30.19 in 10.0 mi Calm Calm - N/A   Clear
10:56 AM -0.4 °F -14.7 °F -5.8 °F 78% 30.19 in 2.0 mi NW 8.1 mph - N/A   Clear
11:16 AM -0.4 °F -14.7 °F -18.4 °F 43% 30.19 in 10.0 mi NW 8.1 mph - N/A   Clear
11:36 AM -0.4 °F -14.7 °F -22.0 °F 36% 30.19 in 10.0 mi NW 8.1 mph - N/A   Clear
11:56 AM 1.4 °F -9.9 °F -0.4 °F 92% 30.18 in 10.0 mi NW 5.8 mph - N/A   Clear
12:16 PM 1.4 °F -12.5 °F -25.6 °F 27% 30.18 in 10.0 mi NW 8.1 mph - N/A   Clear
12:36 PM 1.4 °F -8.3 °F - N/A% 30.19 in 10.0 mi NW 4.6 mph - N/A   Clear
12:56 PM 3.2 °F -10.3 °F -18.4 °F 36% 30.19 in 10.0 mi NW 8.1 mph - N/A   Clear
1:16 PM 3.2 °F -7.8 °F -18.4 °F 36% 30.19 in 10.0 mi NW 5.8 mph - N/A   Clear
1:36 PM 3.2 °F -7.8 °F - N/A% 30.18 in 10.0 mi NW 5.8 mph - N/A   Clear
1:56 PM 5.0 °F -4.1 °F -18.4 °F 33% 30.18 in 10.0 mi NW 4.6 mph - N/A   Clear
2:16 PM 5.0 °F -2.1 °F -16.6 °F 36% 30.17 in 10.0 mi NW 3.5 mph - N/A   Clear
2:36 PM 6.8 °F -0.1 °F - N/A% 30.17 in 9.0 mi NW 3.5 mph - N/A   Clear
2:56 PM 10.4 °F - - N/A% 30.17 in 10.0 mi Calm Calm - N/A   Clear
3:16 PM 10.4 °F - -0.4 °F 62% 30.17 in 10.0 mi Calm Calm - N/A   Clear
3:36 PM 10.4 °F 4.0 °F -11.2 °F 37% 30.16 in 10.0 mi WNW 3.5 mph - N/A   Clear
3:56 PM 10.4 °F 4.0 °F -11.2 °F 37% 30.17 in 10.0 mi NW 3.5 mph - N/A   Clear
4:16 PM 10.4 °F 4.0 °F -9.4 °F 41% 30.17 in 10.0 mi NW 3.5 mph - N/A   Clear
4:36 PM 10.4 °F - -4.0 °F 52% 30.16 in 10.0 mi Calm Calm - N/A   Clear
4:56 PM 12.2 °F - -2.2 °F 53% 30.16 in 10.0 mi Calm Calm - N/A   Clear
5:16 PM 14.0 °F - -2.2 °F 49% 30.16 in 10.0 mi Calm Calm - N/A   Clear
5:36 PM 15.8 °F - -4.0 °F 41% 30.15 in 10.0 mi Calm Calm - N/A   Clear
5:56 PM 15.8 °F - -2.2 °F 45% 30.15 in 10.0 mi Calm Calm - N/A   Clear
6:16 PM 15.8 °F - 3.2 °F 58% 30.15 in 10.0 mi Calm Calm - N/A   Clear
6:36 PM 15.8 °F - 15.8 °F 100% 30.14 in 10.0 mi Calm Calm - N/A   Clear
6:56 PM 15.8 °F - - N/A% 30.14 in 10.0 mi Calm Calm - N/A   Clear
7:16 PM 15.8 °F - 14.0 °F 93% 30.14 in 10.0 mi Calm Calm - N/A   Clear
7:36 PM 15.8 °F - 3.2 °F 58% 30.14 in 10.0 mi Calm Calm - N/A   Clear
7:56 PM 15.8 °F 10.2 °F 15.8 °F 100% 30.14 in 10.0 mi NNW 3.5 mph - N/A   Clear
8:16 PM 15.8 °F 8.6 °F 8.6 °F 73% 30.14 in 10.0 mi NW 4.6 mph - N/A   Clear
8:36 PM 14.0 °F 6.5 °F 8.6 °F 79% 30.14 in 10.0 mi NW 4.6 mph - N/A   Clear
8:56 PM 14.0 °F 6.5 °F 14.0 °F 100% 30.14 in 10.0 mi NNW 4.6 mph - N/A   Clear
9:16 PM 14.0 °F 6.5 °F 6.8 °F 73% 30.14 in 10.0 mi NNW 4.6 mph - N/A   Clear
9:36 PM 14.0 °F 6.5 °F 10.4 °F 86% 30.14 in 10.0 mi North 4.6 mph - N/A   Clear
9:56 PM 12.2 °F 6.1 °F - N/A% 30.15 in 10.0 mi North 3.5 mph - N/A   Clear
10:16 PM 12.2 °F 6.1 °F 10.4 °F 92% 30.15 in 10.0 mi North 3.5 mph - N/A   Clear
10:36 PM 10.4 °F 2.2 °F -0.4 °F 62% 30.15 in 10.0 mi NNE 4.6 mph - N/A   Clear
10:56 PM 12.2 °F 4.3 °F -4.0 °F 48% 30.15 in 10.0 mi North 4.6 mph - N/A   Clear
11:16 PM 12.2 °F 4.3 °F 1.4 °F 62% 30.15 in 10.0 mi NNW 4.6 mph - N/A   Clear
11:36 PM 10.4 °F 2.2 °F 10.4 °F 100% 30.15 in 10.0 mi NNW 4.6 mph - N/A   Clear
11:56 PM 10.4 °F 2.2 °F - N/A% 30.15 in 10.0 mi NW 4.6 mph - N/A   Clear